Location: Trois-Rivi�res
(46.3500°N, 72.5500°W)
Time: 18:54:13
(UTC-04:00)

Tiangong 1 - Pass Details

Date: 13 October 2017
Orbit: 292 x 320 km, 42.8° (Epoch: 21 October)

Event Time Altitude Azimuth Distance (km) Brightness Sun altitude
Rises 19:54:03 0° 267° (W) 2,040 6.3 -19.3°
Reaches altitude 10° 19:56:26 10° 246° (WSW) 1,202 4.4 -19.7°
Enters shadow 19:58:04 17° 209° (SSW) 896 3.1 -19.9°
